Location: Gilevgi
(36.8751°N, 30.0581°E)
Time: 21:52:05
(UTC+00:00)

IRS-P3 - Pass Details

Date: 11 December 2025
Orbit: 810 x 816 km, 99.0° (Epoch: 11 January)

Event Time Altitude Azimuth Distance (km) Brightness Sun altitude
Rises 15:57:00 0° 164° (SSE) 3,323 7.3 -14.3°
Reaches altitude 10° 15:59:20 10° 164° (SSE) 2,394 6.6 -14.8°
Maximum altitude 16:04:38 87° 76° (ENE) 819 4.1 -15.8°
Drops below altitude 10° 16:09:58 10° 347° (NNW) 2,406 6.5 -16.8°
Sets 16:12:19 0° 347° (NNW) 3,340 7.3 -17.2°
